TimeCDT,TemperatureF,Dew PointF,Humidity,Sea Level PressureIn,VisibilityMPH,Wind Direction,Wind SpeedMPH,Gust SpeedMPH,PrecipitationIn,Events,Conditions,WindDirDegrees,DateUTC
12:53 AM,46.9,37.9,71,30.01,10.0,WSW,6.9,-,N/A,,Mostly Cloudy,240,2013-10-22 05:53:00
1:53 AM,48.9,39.0,69,30.00,10.0,WSW,9.2,-,N/A,,Overcast,250,2013-10-22 06:53:00
2:53 AM,50.0,39.9,68,29.99,10.0,WSW,8.1,-,N/A,,Overcast,250,2013-10-22 07:53:00
3:53 AM,51.1,41.0,68,29.99,10.0,West,6.9,-,0.00,,Overcast,270,2013-10-22 08:53:00
4:53 AM,55.9,39.0,53,29.97,10.0,WNW,12.7,-,N/A,,Mostly Cloudy,300,2013-10-22 09:53:00
5:53 AM,54.0,39.0,57,29.99,10.0,NW,11.5,-,N/A,,Partly Cloudy,320,2013-10-22 10:53:00
6:53 AM,51.1,39.0,63,30.01,10.0,NW,13.8,-,N/A,,Clear,320,2013-10-22 11:53:00
7:53 AM,48.0,39.0,71,30.04,10.0,NW,11.5,-,N/A,,Clear,320,2013-10-22 12:53:00
8:53 AM,52.0,39.9,63,30.05,10.0,NW,11.5,-,N/A,,Clear,320,2013-10-22 13:53:00
9:53 AM,55.9,39.9,55,30.06,10.0,NW,11.5,-,N/A,,Clear,320,2013-10-22 14:53:00
10:53 AM,60.1,39.9,47,30.06,10.0,WNW,9.2,-,N/A,,Clear,300,2013-10-22 15:53:00
11:53 AM,63.0,39.0,41,30.06,10.0,NNW,19.6,25.3,N/A,,Clear,330,2013-10-22 16:53:00
12:53 PM,64.9,39.0,39,30.06,10.0,NNW,16.1,21.9,N/A,,Clear,340,2013-10-22 17:53:00
1:53 PM,66.0,39.0,37,30.03,10.0,North,-9999.0,-,N/A,,Clear,0,2013-10-22 18:53:00
2:53 PM,68.0,39.9,36,30.02,10.0,NNW,18.4,-,N/A,,Scattered Clouds,340,2013-10-22 19:53:00
3:53 PM,64.0,39.0,40,30.02,10.0,NW,12.7,-,N/A,,Mostly Cloudy,310,2013-10-22 20:53:00
4:53 PM,66.0,39.0,37,30.02,10.0,NNW,17.3,21.9,N/A,,Partly Cloudy,340,2013-10-22 21:53:00
5:53 PM,64.0,39.0,40,30.03,10.0,North,11.5,23.0,N/A,,Partly Cloudy,360,2013-10-22 22:53:00
6:53 PM,57.0,39.0,51,30.05,10.0,North,8.1,-,N/A,,Clear,10,2013-10-22 23:53:00
7:53 PM,54.0,39.0,57,30.07,10.0,North,9.2,-,N/A,,Clear,10,2013-10-23 00:53:00
8:53 PM,53.1,37.0,55,30.08,10.0,North,10.4,-,N/A,,Scattered Clouds,360,2013-10-23 01:53:00
9:53 PM,48.9,37.0,64,30.10,10.0,North,5.8,-,N/A,,Clear,10,2013-10-23 02:53:00
10:53 PM,46.0,37.0,71,30.12,10.0,NE,12.7,-,N/A,,Clear,50,2013-10-23 03:53:00
11:53 PM,42.1,36.0,79,30.12,10.0,ENE,6.9,-,N/A,,Clear,70,2013-10-23 04:53:00